Time,TemperatureF,DewpointF,PressureIn,WindDirection,WindDirectionDegrees,WindSpeedMPH,WindSpeedGustMPH,Humidity,HourlyPrecipIn,Conditions,Clouds,dailyrainin,SoftwareType,DateUTC
2013-03-06 00:00:00,41.1,39.8,29.61,WNW,284,2.0,2.0,95,0.01,,---,0.00,VWS V14.01,2013-03-06 05:00:00,
2013-03-06 00:01:00,41.1,39.8,29.61,NNW,327,4.0,4.0,95,0.01,,---,0.00,VWS V14.01,2013-03-06 05:01:00,
2013-03-06 00:06:00,41.1,39.8,29.62,NW,323,3.0,4.0,95,0.01,,---,0.00,VWS V14.01,2013-03-06 05:06:00,
2013-03-06 00:10:00,40.7,39.4,29.62,NNW,338,1.0,2.0,95,0.01,,---,0.01,VWS V14.01,2013-03-06 05:10:00,
2013-03-06 00:11:00,41.0,39.7,29.62,NW,311,1.0,2.0,95,0.00,,---,0.00,VWS V14.01,2013-03-06 05:11:00,
2013-03-06 00:16:00,41.0,39.7,29.61,WSW,250,3.0,4.0,95,0.00,,---,0.00,VWS V14.01,2013-03-06 05:16:00,
2013-03-06 00:20:00,40.6,39.0,29.62,NW,325,11.0,11.0,94,0.01,,---,0.01,VWS V14.01,2013-03-06 05:20:00,
2013-03-06 00:21:00,40.9,39.6,29.61,SSW,210,2.0,3.0,95,0.00,,---,0.00,VWS V14.01,2013-03-06 05:21:00,
2013-03-06 00:27:00,40.8,39.5,29.61,WNW,296,0.0,3.0,95,0.01,,---,0.01,VWS V14.01,2013-03-06 05:27:00,
2013-03-06 00:30:00,40.9,36.1,29.62,NNW,338,7.0,15.0,83,0.01,,---,0.01,VWS V14.01,2013-03-06 05:30:00,
2013-03-06 00:32:00,40.9,39.6,29.61,WSW,241,3.0,3.0,95,0.01,,---,0.01,VWS V14.01,2013-03-06 05:32:00,
2013-03-06 00:37:00,40.8,39.5,29.61,WSW,238,0.0,3.0,95,0.01,,---,0.01,VWS V14.01,2013-03-06 05:37:00,
2013-03-06 00:40:00,40.3,33.7,29.62,NNW,330,7.0,14.0,77,0.00,,---,0.01,VWS V14.01,2013-03-06 05:40:00,
2013-03-06 00:42:00,40.9,39.6,29.61,West,269,1.0,1.0,95,0.01,,---,0.01,VWS V14.01,2013-03-06 05:42:00,
2013-03-06 00:47:00,40.9,39.6,29.61,WSW,251,2.0,2.0,95,0.01,,---,0.01,VWS V14.01,2013-03-06 05:47:00,
2013-03-06 00:50:00,39.9,32.3,29.63,NW,304,16.0,18.0,74,0.00,,---,0.01,VWS V14.01,2013-03-06 05:50:00,
2013-03-06 00:52:00,40.9,39.6,29.61,WSW,238,0.0,2.0,95,0.01,,---,0.01,VWS V14.01,2013-03-06 05:52:00,
2013-03-06 00:57:00,40.9,39.6,29.61,North,350,0.0,2.0,95,0.01,,---,0.01,VWS V14.01,2013-03-06 05:57:00,
2013-03-06 01:00:00,39.9,30.9,29.63,NW,306,6.0,19.0,70,0.00,,---,0.01,VWS V14.01,2013-03-06 06:00:00,
2013-03-06 01:02:00,40.8,39.5,29.62,NNW,338,2.0,2.0,95,0.01,,---,0.01,VWS V14.01,2013-03-06 06:02:00,
2013-03-06 01:08:00,40.7,39.4,29.62,NNW,338,1.0,2.0,95,0.01,,---,0.01,VWS V14.01,2013-03-06 06:08:00,
2013-03-06 01:10:00,39.5,31.6,29.63,West,265,6.0,15.0,73,0.00,,---,0.01,VWS V14.01,2013-03-06 06:10:00,
2013-03-06 01:13:00,40.7,39.7,29.62,NNW,338,0.0,1.0,96,0.01,,---,0.01,VWS V14.01,2013-03-06 06:13:00,
2013-03-06 01:18:00,40.7,39.4,29.62,NW,311,2.0,4.0,95,0.01,,---,0.01,VWS V14.01,2013-03-06 06:18:00,
2013-03-06 01:20:00,39.0,30.4,29.64,WNW,288,7.0,14.0,71,0.00,,---,0.01,VWS V14.01,2013-03-06 06:20:00,
2013-03-06 01:23:00,40.8,36.9,29.62,NW,309,4.0,11.0,86,0.01,,---,0.01,VWS V14.01,2013-03-06 06:23:00,
2013-03-06 01:28:00,40.9,35.8,29.62,WNW,291,4.0,15.0,82,0.01,,---,0.01,VWS V14.01,2013-03-06 06:28:00,
2013-03-06 01:30:00,38.7,30.1,29.63,NNW,327,3.0,11.0,71,0.00,,---,0.01,VWS V14.01,2013-03-06 06:30:00,
2013-03-06 01:33:00,40.7,34.7,29.62,NW,315,7.0,12.0,79,0.00,,---,0.01,VWS V14.01,2013-03-06 06:33:00,
2013-03-06 01:38:00,40.3,33.7,29.62,NW,326,12.0,14.0,77,0.00,,---,0.01,VWS V14.01,2013-03-06 06:38:00,
2013-03-06 01:40:00,38.5,29.2,29.63,WNW,288,7.0,13.0,69,0.00,,---,0.01,VWS V14.01,2013-03-06 06:40:00,
2013-03-06 01:43:00,40.1,32.8,29.63,NNW,335,11.0,18.0,75,0.00,,---,0.01,VWS V14.01,2013-03-06 06:43:00,
2013-03-06 01:48:00,39.9,32.3,29.63,WNW,290,8.0,18.0,74,0.00,,---,0.01,VWS V14.01,2013-03-06 06:48:00,
2013-03-06 01:50:00,38.3,28.7,29.64,WNW,297,2.0,12.0,68,0.00,,---,0.01,VWS V14.01,2013-03-06 06:50:00,
2013-03-06 01:53:00,40.0,31.7,29.63,NW,313,8.0,19.0,72,0.00,,---,0.01,VWS V14.01,2013-03-06 06:53:00,
2013-03-06 01:59:00,39.8,30.5,29.63,WNW,290,8.0,19.0,69,0.00,,---,0.01,VWS V14.01,2013-03-06 06:59:00,
2013-03-06 02:00:00,38.1,28.1,29.63,WNW,288,5.0,9.0,67,0.00,,---,0.01,VWS V14.01,2013-03-06 07:00:00,
2013-03-06 02:04:00,39.7,31.1,29.63,West,274,10.0,15.0,71,0.00,,---,0.01,VWS V14.01,2013-03-06 07:04:00,
2013-03-06 02:09:00,39.5,31.2,29.63,NW,313,2.0,15.0,72,0.00,,---,0.01,VWS V14.01,2013-03-06 07:09:00,
2013-03-06 02:10:00,37.8,27.8,29.63,West,277,5.0,12.0,67,0.00,,---,0.01,VWS V14.01,2013-03-06 07:10:00,
2013-03-06 02:14:00,39.3,30.0,29.64,NW,304,7.0,14.0,69,0.00,,---,0.01,VWS V14.01,2013-03-06 07:14:00,
2013-03-06 02:19:00,39.1,30.2,29.64,NW,313,4.0,14.0,70,0.00,,---,0.01,VWS V14.01,2013-03-06 07:19:00,
2013-03-06 02:20:00,37.6,27.6,29.64,West,269,9.0,12.0,67,0.00,,---,0.01,VWS V14.01,2013-03-06 07:20:00,
2013-03-06 02:24:00,38.9,29.6,29.63,WNW,287,3.0,11.0,69,0.00,,---,0.01,VWS V14.01,2013-03-06 07:24:00,
2013-03-06 02:29:00,38.7,30.1,29.63,NNW,329,2.0,11.0,71,0.00,,---,0.01,VWS V14.01,2013-03-06 07:29:00,
2013-03-06 02:30:00,37.4,27.5,29.63,WSW,255,7.0,14.0,67,0.00,,---,0.01,VWS V14.01,2013-03-06 07:30:00,
2013-03-06 02:34:00,38.5,29.9,29.63,West,269,6.0,9.0,71,0.00,,---,0.01,VWS V14.01,2013-03-06 07:34:00,
2013-03-06 02:39:00,38.5,29.2,29.63,WNW,288,7.0,13.0,69,0.00,,---,0.01,VWS V14.01,2013-03-06 07:39:00,
2013-03-06 02:40:00,37.3,27.4,29.64,WNW,302,6.0,13.0,67,0.00,,---,0.01,VWS V14.01,2013-03-06 07:40:00,
2013-03-06 02:44:00,38.3,28.7,29.64,WNW,289,6.0,8.0,68,0.00,,---,0.01,VWS V14.01,2013-03-06 07:44:00,
2013-03-06 02:49:00,38.3,28.7,29.64,WNW,297,2.0,12.0,68,0.00,,---,0.01,VWS V14.01,2013-03-06 07:49:00,
2013-03-06 02:50:00,37.0,27.1,29.64,NNW,347,8.0,12.0,67,0.00,,---,0.01,VWS V14.01,2013-03-06 07:50:00,
2013-03-06 02:54:00,38.2,28.9,29.63,NW,310,3.0,6.0,69,0.00,,---,0.01,VWS V14.01,2013-03-06 07:54:00,
2013-03-06 03:00:00,38.0,28.0,29.63,West,275,5.0,7.0,67,0.00,,---,0.01,VWS V14.01,2013-03-06 08:00:00,
2013-03-06 03:05:00,37.9,27.9,29.63,NW,313,11.0,11.0,67,0.00,,---,0.01,VWS V14.01,2013-03-06 08:05:00,
2013-03-06 03:10:00,37.8,27.8,29.63,NW,305,5.0,6.0,67,0.00,,---,0.01,VWS V14.01,2013-03-06 08:10:00,
2013-03-06 03:15:00,37.7,28.1,29.64,NNW,338,4.0,12.0,68,0.00,,---,0.01,VWS V14.01,2013-03-06 08:15:00,
2013-03-06 03:20:00,37.5,27.5,29.64,NW,316,8.0,10.0,67,0.00,,---,0.01,VWS V14.01,2013-03-06 08:20:00,
2013-03-06 03:25:00,37.5,27.9,29.64,West,272,3.0,14.0,68,0.00,,---,0.01,VWS V14.01,2013-03-06 08:25:00,
2013-03-06 03:30:00,37.4,27.5,29.64,West,271,4.0,7.0,67,0.00,,---,0.01,VWS V14.01,2013-03-06 08:30:00,
2013-03-06 03:35:00,37.3,27.0,29.63,West,280,6.0,13.0,66,0.00,,---,0.01,VWS V14.01,2013-03-06 08:35:00,
2013-03-06 03:40:00,37.3,27.4,29.64,WSW,254,3.0,7.0,67,0.00,,---,0.01,VWS V14.01,2013-03-06 08:40:00,
2013-03-06 03:45:00,37.2,26.9,29.63,NW,323,9.0,12.0,66,0.00,,---,0.01,VWS V14.01,2013-03-06 08:45:00,
2013-03-06 03:50:00,37.0,27.4,29.63,West,280,9.0,9.0,68,0.00,,---,0.01,VWS V14.01,2013-03-06 08:50:00,
2013-03-06 03:55:00,37.0,26.3,29.64,WNW,289,19.0,19.0,65,0.00,,---,0.01,VWS V14.01,2013-03-06 08:55:00,
2013-03-06 04:00:00,37.1,26.1,29.64,WNW,295,13.0,14.0,64,0.00,,---,0.01,VWS V14.01,2013-03-06 09:00:00,
2013-03-06 04:05:00,36.9,26.2,29.64,NW,304,9.0,18.0,65,0.00,,---,0.01,VWS V14.01,2013-03-06 09:05:00,
2013-03-06 04:10:00,36.7,26.4,29.64,NNW,342,10.0,10.0,66,0.00,,---,0.01,VWS V14.01,2013-03-06 09:10:00,
2013-03-06 04:16:00,36.5,25.9,29.64,WNW,283,5.0,12.0,65,0.00,,---,0.01,VWS V14.01,2013-03-06 09:16:00,
2013-03-06 04:20:00,35.3,24.4,29.66,NW,306,5.0,17.0,64,0.00,,---,0.01,VWS V14.01,2013-03-06 09:20:00,
2013-03-06 04:21:00,36.3,25.7,29.64,NW,304,5.0,11.0,65,0.00,,---,0.01,VWS V14.01,2013-03-06 09:21:00,
2013-03-06 04:26:00,36.1,25.1,29.64,WNW,289,4.0,15.0,64,0.00,,---,0.01,VWS V14.01,2013-03-06 09:26:00,
2013-03-06 04:30:00,35.2,23.1,29.66,WNW,286,7.0,18.0,61,0.00,,---,0.01,VWS V14.01,2013-03-06 09:30:00,
2013-03-06 04:31:00,35.9,25.3,29.64,WNW,284,9.0,11.0,65,0.00,,---,0.01,VWS V14.01,2013-03-06 09:31:00,
2013-03-06 04:36:00,35.8,25.2,29.64,WNW,288,7.0,14.0,65,0.00,,---,0.01,VWS V14.01,2013-03-06 09:36:00,
2013-03-06 04:40:00,35.0,22.9,29.66,West,281,7.0,12.0,61,0.00,,---,0.01,VWS V14.01,2013-03-06 09:40:00,
2013-03-06 04:41:00,35.7,25.1,29.64,WNW,291,12.0,12.0,65,0.00,,---,0.01,VWS V14.01,2013-03-06 09:41:00,
2013-03-06 04:46:00,35.7,24.7,29.64,West,266,11.0,15.0,64,0.00,,---,0.01,VWS V14.01,2013-03-06 09:46:00,
2013-03-06 04:50:00,34.7,21.9,29.67,NNW,327,8.0,19.0,59,0.00,,---,0.01,VWS V14.01,2013-03-06 09:50:00,
2013-03-06 04:51:00,35.9,24.5,29.65,WSW,253,4.0,10.0,63,0.00,,---,0.01,VWS V14.01,2013-03-06 09:51:00,
2013-03-06 04:56:00,35.7,25.1,29.65,WSW,247,5.0,14.0,65,0.00,,---,0.01,VWS V14.01,2013-03-06 09:56:00,
2013-03-06 05:00:00,34.5,21.7,29.67,NW,316,12.0,17.0,59,0.00,,---,0.01,VWS V14.01,2013-03-06 10:00:00,
2013-03-06 05:01:00,35.6,25.0,29.65,WSW,242,7.0,7.0,65,0.00,,---,0.01,VWS V14.01,2013-03-06 10:01:00,
2013-03-06 05:06:00,35.5,24.5,29.65,West,265,7.0,11.0,64,0.00,,---,0.01,VWS V14.01,2013-03-06 10:06:00,
2013-03-06 05:10:00,34.3,21.5,29.67,NW,314,12.0,23.0,59,0.00,,---,0.01,VWS V14.01,2013-03-06 10:10:00,
2013-03-06 05:11:00,35.5,24.5,29.65,WSW,248,8.0,13.0,64,0.00,,---,0.01,VWS V14.01,2013-03-06 10:11:00,
2013-03-06 05:16:00,35.4,24.5,29.66,West,276,8.0,17.0,64,0.00,,---,0.01,VWS V14.01,2013-03-06 10:16:00,
2013-03-06 05:20:00,34.1,21.3,29.67,NNW,328,12.0,26.0,59,0.00,,---,0.01,VWS V14.01,2013-03-06 10:20:00,
2013-03-06 05:21:00,35.3,24.4,29.66,WSW,239,7.0,9.0,64,0.00,,---,0.01,VWS V14.01,2013-03-06 10:21:00,
2013-03-06 05:27:00,35.2,23.9,29.66,West,274,18.0,18.0,63,0.00,,---,0.01,VWS V14.01,2013-03-06 10:27:00,
2013-03-06 05:30:00,33.9,21.5,29.67,NW,315,5.0,17.0,60,0.00,,---,0.01,VWS V14.01,2013-03-06 10:30:00,
2013-03-06 05:32:00,35.1,23.8,29.66,WNW,298,4.0,9.0,63,0.00,,---,0.01,VWS V14.01,2013-03-06 10:32:00,
2013-03-06 05:37:00,35.0,23.3,29.66,WSW,246,3.0,12.0,62,0.00,,---,0.01,VWS V14.01,2013-03-06 10:37:00,
2013-03-06 05:40:00,33.6,20.8,29.68,NW,319,8.0,16.0,59,0.00,,---,0.01,VWS V14.01,2013-03-06 10:40:00,
2013-03-06 05:42:00,34.9,22.8,29.67,WNW,284,12.0,12.0,61,0.00,,---,0.01,VWS V14.01,2013-03-06 10:42:00,
2013-03-06 05:47:00,34.7,21.9,29.67,West,278,13.0,17.0,59,0.00,,---,0.01,VWS V14.01,2013-03-06 10:47:00,
2013-03-06 05:50:00,33.5,20.7,29.68,WNW,295,15.0,21.0,59,0.00,,---,0.01,VWS V14.01,2013-03-06 10:50:00,
2013-03-06 05:52:00,34.7,21.9,29.67,NW,316,12.0,16.0,59,0.00,,---,0.01,VWS V14.01,2013-03-06 10:52:00,
2013-03-06 05:57:00,34.6,21.8,29.67,NW,305,9.0,17.0,59,0.00,,---,0.01,VWS V14.01,2013-03-06 10:57:00,
2013-03-06 06:00:00,33.3,20.9,29.68,West,280,14.0,21.0,60,0.00,,---,0.01,VWS V14.01,2013-03-06 11:00:00,
2013-03-06 06:02:00,34.4,21.2,29.67,NW,308,14.0,23.0,58,0.00,,---,0.01,VWS V14.01,2013-03-06 11:02:00,
2013-03-06 06:07:00,34.4,21.2,29.67,NNW,331,10.0,23.0,58,0.00,,---,0.01,VWS V14.01,2013-03-06 11:07:00,
2013-03-06 06:10:00,33.1,21.1,29.68,WNW,294,9.0,15.0,61,0.00,,---,0.01,VWS V14.01,2013-03-06 11:10:00,
2013-03-06 06:13:00,34.2,21.4,29.67,NW,304,15.0,21.0,59,0.00,,---,0.01,VWS V14.01,2013-03-06 11:13:00,
2013-03-06 06:18:00,34.1,20.9,29.67,NW,320,12.0,26.0,58,0.00,,---,0.01,VWS V14.01,2013-03-06 11:18:00,
2013-03-06 06:20:00,33.1,21.5,29.69,West,275,9.0,20.0,62,0.00,,---,0.01,VWS V14.01,2013-03-06 11:20:00,
2013-03-06 06:23:00,34.0,20.8,29.67,West,275,8.0,16.0,58,0.00,,---,0.01,VWS V14.01,2013-03-06 11:23:00,
2013-03-06 06:28:00,34.0,20.8,29.68,NW,304,4.0,17.0,58,0.00,,---,0.01,VWS V14.01,2013-03-06 11:28:00,
2013-03-06 06:30:00,33.0,21.4,29.69,WNW,302,14.0,20.0,62,0.00,,---,0.01,VWS V14.01,2013-03-06 11:30:00,
2013-03-06 06:33:00,33.7,20.9,29.68,West,276,7.0,14.0,59,0.00,,---,0.01,VWS V14.01,2013-03-06 11:33:00,
2013-03-06 06:38:00,33.6,21.2,29.68,NW,306,8.0,15.0,60,0.00,,---,0.01,VWS V14.01,2013-03-06 11:38:00,
2013-03-06 06:40:00,33.1,21.5,29.70,NW,317,12.0,20.0,62,0.00,,---,0.01,VWS V14.01,2013-03-06 11:40:00,
2013-03-06 06:43:00,33.5,21.1,29.68,West,265,11.0,12.0,60,0.00,,---,0.01,VWS V14.01,2013-03-06 11:43:00,
2013-03-06 06:48:00,33.5,20.7,29.68,WNW,288,11.0,21.0,59,0.00,,---,0.01,VWS V14.01,2013-03-06 11:48:00,
2013-03-06 06:50:00,33.2,21.6,29.71,NNE,13,17.0,21.0,62,0.00,,---,0.01,VWS V14.01,2013-03-06 11:50:00,
2013-03-06 06:53:00,33.4,21.0,29.68,WNW,294,13.0,17.0,60,0.00,,---,0.01,VWS V14.01,2013-03-06 11:53:00,
2013-03-06 06:58:00,33.4,21.0,29.68,West,271,5.0,21.0,60,0.00,,---,0.01,VWS V14.01,2013-03-06 11:58:00,
2013-03-06 07:00:00,33.4,21.8,29.71,NNW,327,9.0,21.0,62,0.00,,---,0.01,VWS V14.01,2013-03-06 12:00:00,
2013-03-06 07:04:00,33.2,20.8,29.68,WNW,290,10.0,14.0,60,0.00,,---,0.01,VWS V14.01,2013-03-06 12:04:00,
2013-03-06 07:09:00,33.2,21.2,29.68,West,278,8.0,15.0,61,0.00,,---,0.01,VWS V14.01,2013-03-06 12:09:00,
2013-03-06 07:10:00,33.7,21.7,29.72,West,281,16.0,25.0,61,0.00,,---,0.01,VWS V14.01,2013-03-06 12:10:00,
2013-03-06 07:14:00,33.1,21.1,29.69,WNW,289,18.0,20.0,61,0.00,,---,0.01,VWS V14.01,2013-03-06 12:14:00,
2013-03-06 07:19:00,33.1,21.5,29.69,WNW,284,5.0,20.0,62,0.00,,---,0.01,VWS V14.01,2013-03-06 12:19:00,
2013-03-06 07:20:00,34.1,22.5,29.73,NNW,333,9.0,22.0,62,0.00,,---,0.01,VWS V14.01,2013-03-06 12:20:00,
2013-03-06 07:24:00,32.9,21.7,29.69,West,275,11.0,13.0,63,0.00,,---,0.01,VWS V14.01,2013-03-06 12:24:00,
2013-03-06 07:29:00,33.0,21.4,29.69,NW,304,8.0,20.0,62,0.00,,---,0.01,VWS V14.01,2013-03-06 12:29:00,
2013-03-06 07:30:00,34.3,22.6,29.74,NW,313,5.0,22.0,62,0.00,,---,0.01,VWS V14.01,2013-03-06 12:30:00,
2013-03-06 07:34:00,33.1,21.5,29.70,NW,314,12.0,20.0,62,0.00,,---,0.01,VWS V14.01,2013-03-06 12:34:00,
2013-03-06 07:39:00,33.1,21.5,29.70,NW,317,12.0,20.0,62,0.00,,---,0.01,VWS V14.01,2013-03-06 12:39:00,
2013-03-06 07:40:00,33.8,22.2,29.75,NW,326,8.0,19.0,62,0.00,,---,0.01,VWS V14.01,2013-03-06 12:40:00,
2013-03-06 07:45:00,33.2,21.2,29.70,North,355,21.0,21.0,61,0.00,,---,0.01,VWS V14.01,2013-03-06 12:45:00,
2013-03-06 07:50:00,33.3,21.7,29.70,NW,316,15.0,21.0,62,0.00,,---,0.01,VWS V14.01,2013-03-06 12:50:00,
2013-03-06 07:55:00,33.3,21.7,29.71,NW,313,11.0,21.0,62,0.00,,---,0.01,VWS V14.01,2013-03-06 12:55:00,
2013-03-06 08:00:00,33.4,22.2,29.71,WNW,292,17.0,17.0,63,0.00,,---,0.01,VWS V14.01,2013-03-06 13:00:00,
2013-03-06 08:05:00,33.6,21.6,29.72,WNW,298,7.0,20.0,61,0.00,,---,0.01,VWS V14.01,2013-03-06 13:05:00,
2013-03-06 08:10:00,33.7,21.7,29.72,NW,309,13.0,16.0,61,0.00,,---,0.01,VWS V14.01,2013-03-06 13:10:00,
2013-03-06 08:15:00,34.0,22.0,29.72,NW,311,17.0,22.0,61,0.00,,---,0.01,VWS V14.01,2013-03-06 13:15:00,
2013-03-06 08:20:00,34.2,22.5,29.73,WNW,286,7.0,14.0,62,0.00,,---,0.01,VWS V14.01,2013-03-06 13:20:00,
2013-03-06 08:25:00,34.3,22.6,29.74,NNW,327,12.0,22.0,62,0.00,,---,0.01,VWS V14.01,2013-03-06 13:25:00,
2013-03-06 08:30:00,34.2,22.5,29.75,WNW,288,14.0,14.0,62,0.00,,---,0.01,VWS V14.01,2013-03-06 13:30:00,
2013-03-06 08:36:00,34.1,22.5,29.75,West,279,9.0,19.0,62,0.00,,---,0.01,VWS V14.01,2013-03-06 13:36:00,
2013-03-06 08:40:00,34.0,22.0,29.77,WNW,285,9.0,21.0,61,0.00,,---,0.01,VWS V14.01,2013-03-06 13:40:00,
2013-03-06 08:41:00,33.8,22.2,29.75,NW,307,11.0,15.0,62,0.00,,---,0.01,VWS V14.01,2013-03-06 13:41:00,
2013-03-06 08:46:00,33.7,22.1,29.75,WNW,282,12.0,19.0,62,0.00,,---,0.01,VWS V14.01,2013-03-06 13:46:00,
2013-03-06 08:50:00,34.3,22.3,29.78,WNW,285,10.0,22.0,61,0.00,,---,0.01,VWS V14.01,2013-03-06 13:50:00,
2013-03-06 08:51:00,33.7,22.5,29.75,NW,308,10.0,15.0,63,0.00,,---,0.01,VWS V14.01,2013-03-06 13:51:00,
2013-03-06 08:56:00,33.5,22.6,29.75,NW,313,20.0,22.0,64,0.00,,---,0.01,VWS V14.01,2013-03-06 13:56:00,
2013-03-06 09:00:00,34.8,22.7,29.78,WNW,299,12.0,14.0,61,0.00,,---,0.01,VWS V14.01,2013-03-06 14:00:00,
2013-03-06 09:01:00,33.5,22.6,29.76,WNW,292,13.0,19.0,64,0.00,,---,0.01,VWS V14.01,2013-03-06 14:01:00,
2013-03-06 09:06:00,33.5,22.6,29.75,West,261,12.0,24.0,64,0.00,,---,0.01,VWS V14.01,2013-03-06 14:06:00,
2013-03-06 09:10:00,36.4,23.5,29.78,North,350,5.0,21.0,59,0.00,,---,0.01,VWS V14.01,2013-03-06 14:10:00,
2013-03-06 09:11:00,33.6,22.7,29.75,WNW,296,7.0,15.0,64,0.00,,---,0.01,VWS V14.01,2013-03-06 14:11:00,
2013-03-06 09:17:00,33.7,23.2,29.76,West,279,7.0,15.0,65,0.00,,---,0.01,VWS V14.01,2013-03-06 14:17:00,
2013-03-06 09:20:00,37.8,24.0,29.80,West,277,9.0,20.0,57,0.00,,---,0.01,VWS V14.01,2013-03-06 14:20:00,
2013-03-06 09:22:00,33.9,23.4,29.76,NW,324,8.0,13.0,65,0.00,,---,0.01,VWS V14.01,2013-03-06 14:22:00,
2013-03-06 09:27:00,33.9,22.6,29.77,NW,311,14.0,22.0,63,0.00,,---,0.01,VWS V14.01,2013-03-06 14:27:00,
2013-03-06 09:30:00,37.3,22.6,29.80,NNW,338,7.0,17.0,55,0.00,,---,0.01,VWS V14.01,2013-03-06 14:30:00,
2013-03-06 09:32:00,34.0,23.1,29.77,NW,309,8.0,10.0,64,0.00,,---,0.01,VWS V14.01,2013-03-06 14:32:00,
2013-03-06 09:37:00,34.0,22.7,29.77,WNW,297,21.0,21.0,63,0.00,,---,0.01,VWS V14.01,2013-03-06 14:37:00,
2013-03-06 09:40:00,36.4,22.2,29.80,NW,308,12.0,24.0,56,0.00,,---,0.01,VWS V14.01,2013-03-06 14:40:00,
2013-03-06 09:42:00,34.1,22.5,29.77,WNW,290,9.0,15.0,62,0.00,,---,0.01,VWS V14.01,2013-03-06 14:42:00,
2013-03-06 09:47:00,34.1,22.5,29.77,West,271,16.0,17.0,62,0.00,,---,0.01,VWS V14.01,2013-03-06 14:47:00,
2013-03-06 09:50:00,37.0,23.2,29.81,WNW,286,6.0,16.0,57,0.00,,---,0.01,VWS V14.01,2013-03-06 14:50:00,
2013-03-06 09:52:00,34.4,22.4,29.78,WNW,287,6.0,13.0,61,0.00,,---,0.01,VWS V14.01,2013-03-06 14:52:00,
2013-03-06 09:57:00,34.6,22.9,29.78,WNW,286,8.0,14.0,62,0.00,,---,0.01,VWS V14.01,2013-03-06 14:57:00,
2013-03-06 10:00:00,37.4,22.7,29.82,NNE,19,14.0,20.0,55,0.00,,---,0.01,VWS V14.01,2013-03-06 15:00:00,
2013-03-06 10:02:00,35.0,22.9,29.77,WNW,284,10.0,16.0,61,0.00,,---,0.01,VWS V14.01,2013-03-06 15:02:00,
2013-03-06 10:07:00,36.0,22.7,29.78,WNW,298,7.0,21.0,58,0.00,,---,0.01,VWS V14.01,2013-03-06 15:07:00,
2013-03-06 10:10:00,38.8,23.6,29.82,West,268,16.0,20.0,54,0.00,,---,0.01,VWS V14.01,2013-03-06 15:10:00,
2013-03-06 10:13:00,37.1,23.7,29.78,NW,316,7.0,20.0,58,0.00,,---,0.01,VWS V14.01,2013-03-06 15:13:00,
2013-03-06 10:18:00,37.6,23.8,29.79,NW,308,16.0,20.0,57,0.00,,---,0.01,VWS V14.01,2013-03-06 15:18:00,
2013-03-06 10:20:00,39.1,23.4,29.82,WNW,286,11.0,27.0,53,0.00,,---,0.01,VWS V14.01,2013-03-06 15:20:00,
2013-03-06 10:23:00,37.9,24.0,29.80,NW,308,10.0,17.0,57,0.00,,---,0.01,VWS V14.01,2013-03-06 15:23:00,
2013-03-06 10:28:00,37.5,22.8,29.80,NW,315,6.0,17.0,55,0.00,,---,0.01,VWS V14.01,2013-03-06 15:28:00,
2013-03-06 10:30:00,39.8,24.1,29.81,West,269,16.0,27.0,53,0.00,,---,0.01,VWS V14.01,2013-03-06 15:30:00,
2013-03-06 10:33:00,36.8,22.2,29.80,NNW,331,10.0,24.0,55,0.00,,---,0.01,VWS V14.01,2013-03-06 15:33:00,
2013-03-06 10:38:00,36.4,21.8,29.80,West,279,12.0,24.0,55,0.00,,---,0.01,VWS V14.01,2013-03-06 15:38:00,
2013-03-06 10:40:00,39.8,23.6,29.82,NW,309,14.0,21.0,52,0.00,,---,0.01,VWS V14.01,2013-03-06 15:40:00,
2013-03-06 10:44:00,36.6,22.8,29.81,West,271,8.0,14.0,57,0.00,,---,0.01,VWS V14.01,2013-03-06 15:44:00,
2013-03-06 10:49:00,36.9,23.1,29.81,WNW,300,4.0,16.0,57,0.00,,---,0.01,VWS V14.01,2013-03-06 15:49:00,
2013-03-06 10:50:00,39.7,24.0,29.83,North,5,9.0,21.0,53,0.00,,---,0.01,VWS V14.01,2013-03-06 15:50:00,
2013-03-06 10:54:00,37.3,22.6,29.82,NNW,328,4.0,18.0,55,0.00,,---,0.01,VWS V14.01,2013-03-06 15:54:00,
2013-03-06 10:59:00,37.4,22.7,29.82,NNW,344,18.0,20.0,55,0.00,,---,0.01,VWS V14.01,2013-03-06 15:59:00,
2013-03-06 11:00:00,40.2,24.9,29.84,NW,318,6.0,20.0,54,0.00,,---,0.01,VWS V14.01,2013-03-06 16:00:00,
2013-03-06 11:04:00,37.9,23.6,29.82,NW,317,12.0,19.0,56,0.00,,---,0.01,VWS V14.01,2013-03-06 16:04:00,
2013-03-06 11:09:00,38.7,23.5,29.82,West,281,13.0,19.0,54,0.00,,---,0.01,VWS V14.01,2013-03-06 16:09:00,
2013-03-06 11:10:00,38.6,24.3,29.84,SW,217,12.0,21.0,56,0.00,,---,0.01,VWS V14.01,2013-03-06 16:10:00,
2013-03-06 11:14:00,38.8,23.6,29.82,NW,307,15.0,27.0,54,0.00,,---,0.01,VWS V14.01,2013-03-06 16:14:00,
2013-03-06 11:19:00,39.1,23.4,29.82,WNW,296,7.0,27.0,53,0.00,,---,0.01,VWS V14.01,2013-03-06 16:19:00,
2013-03-06 11:20:00,38.2,23.9,29.85,WNW,300,24.0,31.0,56,0.00,,---,0.01,VWS V14.01,2013-03-06 16:20:00,
2013-03-06 11:24:00,39.2,24.0,29.81,WNW,286,8.0,27.0,54,0.00,,---,0.01,VWS V14.01,2013-03-06 16:24:00,
2013-03-06 11:29:00,39.8,24.1,29.81,West,269,16.0,27.0,53,0.00,,---,0.01,VWS V14.01,2013-03-06 16:29:00,
2013-03-06 11:30:00,38.0,24.1,29.86,WNW,284,15.0,24.0,57,0.00,,---,0.01,VWS V14.01,2013-03-06 16:30:00,
2013-03-06 11:34:00,39.9,24.6,29.82,NW,311,19.0,21.0,54,0.00,,---,0.01,VWS V14.01,2013-03-06 16:34:00,
2013-03-06 11:40:00,39.8,23.6,29.82,NW,313,21.0,21.0,52,0.00,,---,0.01,VWS V14.01,2013-03-06 16:40:00,
2013-03-06 11:45:00,39.8,24.1,29.82,West,274,13.0,21.0,53,0.00,,---,0.01,VWS V14.01,2013-03-06 16:45:00,
2013-03-06 11:50:00,39.7,24.9,29.83,NW,322,11.0,11.0,55,0.00,,---,0.01,VWS V14.01,2013-03-06 16:50:00,
2013-03-06 11:55:00,39.9,24.2,29.83,West,278,10.0,20.0,53,0.00,,---,0.01,VWS V14.01,2013-03-06 16:55:00,
2013-03-06 12:00:00,40.2,24.9,29.84,West,269,11.0,11.0,54,0.00,,---,0.01,VWS V14.01,2013-03-06 17:00:00,
2013-03-06 12:05:00,39.1,23.9,29.84,NNW,334,12.0,19.0,54,0.00,,---,0.01,VWS V14.01,2013-03-06 17:05:00,
2013-03-06 12:10:00,38.7,24.4,29.85,NNW,334,8.0,18.0,56,0.00,,---,0.01,VWS V14.01,2013-03-06 17:10:00,
2013-03-06 12:15:00,38.3,24.0,29.85,NW,308,8.0,22.0,56,0.00,,---,0.01,VWS V14.01,2013-03-06 17:15:00,
2013-03-06 12:20:00,38.2,23.9,29.85,WNW,290,10.0,24.0,56,0.00,,---,0.01,VWS V14.01,2013-03-06 17:20:00,
2013-03-06 12:25:00,38.0,23.7,29.86,NW,323,11.0,24.0,56,0.00,,---,0.01,VWS V14.01,2013-03-06 17:25:00,
2013-03-06 12:30:00,38.0,23.7,29.85,NW,320,6.0,16.0,56,0.00,,---,0.01,VWS V14.01,2013-03-06 17:30:00,
2013-03-06 12:36:00,38.3,24.0,29.85,NW,316,6.0,25.0,56,0.00,,---,0.01,VWS V14.01,2013-03-06 17:36:00,
2013-03-06 12:40:00,38.9,25.4,29.86,NW,311,13.0,21.0,58,0.00,,---,0.01,VWS V14.01,2013-03-06 17:40:00,
2013-03-06 12:41:00,38.3,23.6,29.85,NW,305,10.0,18.0,55,0.00,,---,0.01,VWS V14.01,2013-03-06 17:41:00,
2013-03-06 12:46:00,38.3,24.0,29.85,NW,312,7.0,24.0,56,0.00,,---,0.01,VWS V14.01,2013-03-06 17:46:00,
2013-03-06 12:50:00,38.8,25.3,29.86,WNW,301,9.0,20.0,58,0.00,,---,0.01,VWS V14.01,2013-03-06 17:50:00,
2013-03-06 12:51:00,38.2,23.9,29.84,West,270,17.0,26.0,56,0.00,,---,0.01,VWS V14.01,2013-03-06 17:51:00,
2013-03-06 12:56:00,38.9,24.6,29.85,West,277,18.0,29.0,56,0.00,,---,0.01,VWS V14.01,2013-03-06 17:56:00,
2013-03-06 13:00:00,39.3,25.8,29.86,West,275,5.0,18.0,58,0.00,,---,0.01,VWS V14.01,2013-03-06 18:00:00,
2013-03-06 13:01:00,39.0,24.2,29.85,NW,307,12.0,21.0,55,0.00,,---,0.01,VWS V14.01,2013-03-06 18:01:00,
2013-03-06 13:07:00,39.6,25.6,29.86,WNW,296,11.0,22.0,57,0.00,,---,0.01,VWS V14.01,2013-03-06 18:07:00,
2013-03-06 13:10:00,39.1,25.6,29.86,NNW,339,8.0,17.0,58,0.00,,---,0.01,VWS V14.01,2013-03-06 18:10:00,
2013-03-06 13:12:00,39.2,24.8,29.85,NW,306,12.0,18.0,56,0.00,,---,0.01,VWS V14.01,2013-03-06 18:12:00,
2013-03-06 13:17:00,39.1,25.2,29.86,West,277,13.0,22.0,57,0.00,,---,0.01,VWS V14.01,2013-03-06 18:17:00,
2013-03-06 13:20:00,38.7,25.6,29.87,WNW,284,13.0,19.0,59,0.00,,---,0.01,VWS V14.01,2013-03-06 18:20:00,
2013-03-06 13:22:00,39.0,25.1,29.86,NW,323,12.0,18.0,57,0.00,,---,0.01,VWS V14.01,2013-03-06 18:22:00,
2013-03-06 13:27:00,39.4,25.0,29.86,WNW,299,11.0,19.0,56,0.00,,---,0.01,VWS V14.01,2013-03-06 18:27:00,
2013-03-06 13:30:00,38.6,25.9,29.88,NNW,327,10.0,18.0,60,0.00,,---,0.01,VWS V14.01,2013-03-06 18:30:00,
2013-03-06 13:32:00,39.3,25.4,29.86,WNW,284,13.0,17.0,57,0.00,,---,0.01,VWS V14.01,2013-03-06 18:32:00,
2013-03-06 13:37:00,39.0,25.1,29.86,WNW,288,14.0,21.0,57,0.00,,---,0.01,VWS V14.01,2013-03-06 18:37:00,
2013-03-06 13:40:00,40.7,26.7,29.88,WNW,288,14.0,22.0,57,0.00,,---,0.01,VWS V14.01,2013-03-06 18:40:00,
2013-03-06 13:42:00,38.8,24.9,29.86,NW,304,13.0,17.0,57,0.00,,---,0.01,VWS V14.01,2013-03-06 18:42:00,
2013-03-06 13:47:00,38.7,24.8,29.86,NW,306,14.0,20.0,57,0.00,,---,0.01,VWS V14.01,2013-03-06 18:47:00,
2013-03-06 13:50:00,40.5,26.9,29.89,WNW,294,9.0,20.0,58,0.00,,---,0.01,VWS V14.01,2013-03-06 18:50:00,
2013-03-06 13:53:00,39.1,25.2,29.86,WNW,293,18.0,18.0,57,0.00,,---,0.01,VWS V14.01,2013-03-06 18:53:00,
2013-03-06 13:58:00,39.2,25.7,29.86,WNW,290,12.0,18.0,58,0.00,,---,0.01,VWS V14.01,2013-03-06 18:58:00,
2013-03-06 14:00:00,40.4,26.8,29.90,West,280,7.0,20.0,58,0.00,,---,0.01,VWS V14.01,2013-03-06 19:00:00,
2013-03-06 14:03:00,39.2,25.7,29.86,WNW,297,6.0,16.0,58,0.00,,---,0.01,VWS V14.01,2013-03-06 19:03:00,
2013-03-06 14:08:00,39.1,25.6,29.86,West,271,6.0,17.0,58,0.00,,---,0.01,VWS V14.01,2013-03-06 19:08:00,
2013-03-06 14:10:00,39.3,26.2,29.91,WNW,294,11.0,25.0,59,0.00,,---,0.01,VWS V14.01,2013-03-06 19:10:00,
2013-03-06 14:13:00,39.0,25.9,29.87,WNW,300,5.0,18.0,59,0.00,,---,0.01,VWS V14.01,2013-03-06 19:13:00,
2013-03-06 14:18:00,38.7,26.0,29.87,West,274,16.0,19.0,60,0.00,,---,0.01,VWS V14.01,2013-03-06 19:18:00,
2013-03-06 14:20:00,38.9,26.2,29.91,NW,312,6.0,17.0,60,0.00,,---,0.01,VWS V14.01,2013-03-06 19:20:00,
2013-03-06 14:23:00,38.4,25.7,29.87,WNW,298,14.0,18.0,60,0.00,,---,0.01,VWS V14.01,2013-03-06 19:23:00,
2013-03-06 14:28:00,38.5,25.8,29.88,WNW,296,11.0,18.0,60,0.00,,---,0.01,VWS V14.01,2013-03-06 19:28:00,
2013-03-06 14:30:00,39.0,26.7,29.92,West,280,15.0,19.0,61,0.00,,---,0.01,VWS V14.01,2013-03-06 19:30:00,
2013-03-06 14:34:00,39.7,27.0,29.87,NW,314,13.0,19.0,60,0.00,,---,0.01,VWS V14.01,2013-03-06 19:34:00,
2013-03-06 14:39:00,40.7,26.7,29.88,NW,325,18.0,22.0,57,0.00,,---,0.01,VWS V14.01,2013-03-06 19:39:00,
2013-03-06 14:40:00,38.7,26.4,29.93,WNW,293,7.0,22.0,61,0.00,,---,0.01,VWS V14.01,2013-03-06 19:40:00,
2013-03-06 14:44:00,40.8,27.2,29.88,NW,319,13.0,17.0,58,0.00,,---,0.01,VWS V14.01,2013-03-06 19:44:00,
2013-03-06 14:49:00,40.5,26.9,29.89,WNW,294,9.0,20.0,58,0.00,,---,0.01,VWS V14.01,2013-03-06 19:49:00,
2013-03-06 14:50:00,38.9,26.6,29.93,West,276,10.0,20.0,61,0.00,,---,0.01,VWS V14.01,2013-03-06 19:50:00,
2013-03-06 14:54:00,40.4,26.4,29.90,NW,313,12.0,20.0,57,0.00,,---,0.01,VWS V14.01,2013-03-06 19:54:00,
2013-03-06 15:00:00,40.4,26.8,29.90,West,267,9.0,9.0,58,0.00,,---,0.01,VWS V14.01,2013-03-06 20:00:00,
2013-03-06 15:05:00,39.8,26.2,29.91,WNW,300,7.0,16.0,58,0.00,,---,0.01,VWS V14.01,2013-03-06 20:05:00,
2013-03-06 15:10:00,39.3,26.2,29.91,WNW,288,8.0,11.0,59,0.00,,---,0.01,VWS V14.01,2013-03-06 20:10:00,
2013-03-06 15:15:00,39.2,26.1,29.92,WNW,302,11.0,16.0,59,0.00,,---,0.01,VWS V14.01,2013-03-06 20:15:00,
2013-03-06 15:20:00,38.9,26.6,29.91,NW,322,11.0,14.0,61,0.00,,---,0.01,VWS V14.01,2013-03-06 20:20:00,
2013-03-06 15:25:00,38.8,26.1,29.92,NW,326,15.0,19.0,60,0.00,,---,0.01,VWS V14.01,2013-03-06 20:25:00,
2013-03-06 15:30:00,39.8,27.1,29.96,West,267,9.0,23.0,60,0.00,,---,0.01,VWS V14.01,2013-03-06 20:30:00,
2013-03-06 15:31:00,39.0,26.7,29.92,WNW,300,16.0,18.0,61,0.00,,---,0.01,VWS V14.01,2013-03-06 20:31:00,
2013-03-06 15:36:00,38.7,26.4,29.92,West,265,11.0,22.0,61,0.00,,---,0.01,VWS V14.01,2013-03-06 20:36:00,
2013-03-06 15:40:00,39.9,27.2,29.98,WNW,289,15.0,22.0,60,0.00,,---,0.01,VWS V14.01,2013-03-06 20:40:00,
2013-03-06 15:41:00,38.8,26.5,29.93,WNW,289,10.0,20.0,61,0.00,,---,0.01,VWS V14.01,2013-03-06 20:41:00,
2013-03-06 15:46:00,39.0,26.7,29.93,WNW,302,8.0,20.0,61,0.00,,---,0.01,VWS V14.01,2013-03-06 20:46:00,
2013-03-06 15:50:00,39.3,26.6,29.98,NW,310,6.0,16.0,60,0.00,,---,0.01,VWS V14.01,2013-03-06 20:50:00,
2013-03-06 15:51:00,38.8,26.5,29.93,NW,321,9.0,13.0,61,0.00,,---,0.01,VWS V14.01,2013-03-06 20:51:00,
2013-03-06 15:56:00,38.6,26.7,29.94,North,355,4.0,21.0,62,0.00,,---,0.01,VWS V14.01,2013-03-06 20:56:00,
2013-03-06 16:00:00,39.3,26.6,29.99,WNW,293,15.0,26.0,60,0.00,,---,0.01,VWS V14.01,2013-03-06 21:00:00,
2013-03-06 16:02:00,38.9,26.6,29.93,WNW,296,11.0,16.0,61,0.00,,---,0.01,VWS V14.01,2013-03-06 21:02:00,
2013-03-06 16:07:00,39.1,26.8,29.94,NW,317,15.0,24.0,61,0.00,,---,0.01,VWS V14.01,2013-03-06 21:07:00,
2013-03-06 16:10:00,39.1,26.8,30.00,NW,306,6.0,23.0,61,0.00,,---,0.01,VWS V14.01,2013-03-06 21:10:00,
2013-03-06 16:12:00,39.4,27.1,29.93,NNW,331,7.0,19.0,61,0.00,,---,0.01,VWS V14.01,2013-03-06 21:12:00,
2013-03-06 16:17:00,39.4,27.1,29.93,West,259,19.0,23.0,61,0.00,,---,0.01,VWS V14.01,2013-03-06 21:17:00,
2013-03-06 16:20:00,39.1,26.8,30.00,WNW,286,20.0,22.0,61,0.00,,---,0.01,VWS V14.01,2013-03-06 21:20:00,
2013-03-06 16:23:00,39.4,27.5,29.94,NW,311,17.0,23.0,62,0.00,,---,0.01,VWS V14.01,2013-03-06 21:23:00,
2013-03-06 16:28:00,39.9,27.6,29.96,NW,315,8.0,23.0,61,0.00,,---,0.01,VWS V14.01,2013-03-06 21:28:00,
2013-03-06 16:30:00,38.4,26.5,30.01,NNW,336,13.0,21.0,62,0.00,,---,0.01,VWS V14.01,2013-03-06 21:30:00,
2013-03-06 16:33:00,39.7,27.0,29.96,NNW,327,15.0,22.0,60,0.00,,---,0.01,VWS V14.01,2013-03-06 21:33:00,
2013-03-06 16:38:00,39.8,26.7,29.97,NNW,348,8.0,22.0,59,0.00,,---,0.01,VWS V14.01,2013-03-06 21:38:00,
2013-03-06 16:40:00,38.6,26.3,30.01,NNW,342,7.0,20.0,61,0.00,,---,0.01,VWS V14.01,2013-03-06 21:40:00,
2013-03-06 16:43:00,39.8,26.7,29.98,NNW,328,3.0,15.0,59,0.00,,---,0.01,VWS V14.01,2013-03-06 21:43:00,
2013-03-06 16:48:00,39.4,26.7,29.99,NW,319,11.0,16.0,60,0.00,,---,0.01,VWS V14.01,2013-03-06 21:48:00,
2013-03-06 16:50:00,37.9,26.4,30.01,WNW,302,10.0,19.0,63,0.00,,---,0.01,VWS V14.01,2013-03-06 21:50:00,
2013-03-06 16:53:00,39.5,26.8,29.99,WNW,298,7.0,20.0,60,0.00,,---,0.01,VWS V14.01,2013-03-06 21:53:00,
2013-03-06 16:59:00,39.4,26.3,29.99,NW,309,18.0,26.0,59,0.00,,---,0.01,VWS V14.01,2013-03-06 21:59:00,
2013-03-06 17:00:00,37.4,26.4,30.02,West,280,13.0,18.0,64,0.00,,---,0.01,VWS V14.01,2013-03-06 22:00:00,
2013-03-06 17:04:00,39.1,26.8,30.00,NW,312,14.0,23.0,61,0.00,,---,0.01,VWS V14.01,2013-03-06 22:04:00,
2013-03-06 17:09:00,39.1,27.2,30.00,NW,319,9.0,23.0,62,0.00,,---,0.01,VWS V14.01,2013-03-06 22:09:00,
2013-03-06 17:10:00,37.0,26.3,30.02,NW,304,9.0,18.0,65,0.00,,---,0.01,VWS V14.01,2013-03-06 22:10:00,
2013-03-06 17:14:00,39.2,26.9,30.00,North,360,9.0,16.0,61,0.00,,---,0.01,VWS V14.01,2013-03-06 22:14:00,
2013-03-06 17:19:00,39.1,26.4,30.00,NNW,343,4.0,22.0,60,0.00,,---,0.01,VWS V14.01,2013-03-06 22:19:00,
2013-03-06 17:20:00,36.8,26.1,30.03,NW,311,8.0,20.0,65,0.00,,---,0.01,VWS V14.01,2013-03-06 22:20:00,
2013-03-06 17:24:00,38.7,26.4,30.00,NW,305,10.0,20.0,61,0.00,,---,0.01,VWS V14.01,2013-03-06 22:24:00,
2013-03-06 17:29:00,38.4,26.5,30.01,NW,316,11.0,21.0,62,0.00,,---,0.01,VWS V14.01,2013-03-06 22:29:00,
2013-03-06 17:30:00,36.8,26.1,30.04,NW,311,11.0,14.0,65,0.00,,---,0.01,VWS V14.01,2013-03-06 22:30:00,
2013-03-06 17:34:00,38.6,26.3,30.01,NNW,340,5.0,20.0,61,0.00,,---,0.01,VWS V14.01,2013-03-06 22:34:00,
2013-03-06 17:39:00,38.7,26.4,30.01,NNW,336,9.0,9.0,61,0.00,,---,0.01,VWS V14.01,2013-03-06 22:39:00,
2013-03-06 17:40:00,36.6,26.3,30.05,NW,311,9.0,16.0,66,0.00,,---,0.01,VWS V14.01,2013-03-06 22:40:00,
2013-03-06 17:45:00,38.3,26.4,30.01,North,350,5.0,19.0,62,0.00,,---,0.01,VWS V14.01,2013-03-06 22:45:00,
2013-03-06 17:50:00,37.9,26.5,30.01,WNW,303,14.0,18.0,63,0.00,,---,0.01,VWS V14.01,2013-03-06 22:50:00,
2013-03-06 17:55:00,37.6,26.5,30.02,NNW,327,8.0,18.0,64,0.00,,---,0.01,VWS V14.01,2013-03-06 22:55:00,
2013-03-06 18:00:00,37.3,26.3,30.02,WNW,298,8.0,13.0,64,0.00,,---,0.01,VWS V14.01,2013-03-06 23:00:00,
2013-03-06 18:05:00,37.1,26.1,30.02,WNW,285,7.0,18.0,64,0.00,,---,0.01,VWS V14.01,2013-03-06 23:05:00,
2013-03-06 18:10:00,37.0,26.3,30.02,NNW,339,7.0,10.0,65,0.00,,---,0.01,VWS V14.01,2013-03-06 23:10:00,
2013-03-06 18:15:00,36.9,26.2,30.03,West,277,10.0,20.0,65,0.00,,---,0.01,VWS V14.01,2013-03-06 23:15:00,
2013-03-06 18:20:00,36.9,26.2,30.04,NW,304,8.0,14.0,65,0.00,,---,0.01,VWS V14.01,2013-03-06 23:20:00,
2013-03-06 18:26:00,36.8,26.5,30.04,West,275,11.0,14.0,66,0.00,,---,0.01,VWS V14.01,2013-03-06 23:26:00,
2013-03-06 18:30:00,36.6,26.3,30.07,NNW,338,7.0,21.0,66,0.00,,---,0.01,VWS V14.01,2013-03-06 23:30:00,
2013-03-06 18:31:00,36.8,26.1,30.04,NW,306,9.0,11.0,65,0.00,,---,0.01,VWS V14.01,2013-03-06 23:31:00,
2013-03-06 18:36:00,36.7,26.4,30.04,WNW,289,4.0,16.0,66,0.00,,---,0.01,VWS V14.01,2013-03-06 23:36:00,
2013-03-06 18:40:00,36.4,26.1,30.07,NNW,335,11.0,24.0,66,0.00,,---,0.01,VWS V14.01,2013-03-06 23:40:00,
2013-03-06 18:41:00,36.5,26.2,30.04,NW,312,3.0,12.0,66,0.00,,---,0.01,VWS V14.01,2013-03-06 23:41:00,
2013-03-06 18:46:00,36.5,26.2,30.05,NW,310,5.0,15.0,66,0.00,,---,0.01,VWS V14.01,2013-03-06 23:46:00,
2013-03-06 18:50:00,36.4,26.1,30.06,NW,313,10.0,19.0,66,0.00,,---,0.01,VWS V14.01,2013-03-06 23:50:00,
2013-03-06 18:51:00,36.5,26.2,30.05,NW,315,10.0,15.0,66,0.00,,---,0.01,VWS V14.01,2013-03-06 23:51:00,
2013-03-06 18:56:00,36.6,26.3,30.06,NW,306,4.0,15.0,66,0.00,,---,0.01,VWS V14.01,2013-03-06 23:56:00,
2013-03-06 19:00:00,36.4,26.5,30.06,West,271,14.0,21.0,67,0.00,,---,0.01,VWS V14.01,2013-03-07 00:00:00,
2013-03-06 19:01:00,36.6,26.3,30.06,NNW,334,8.0,18.0,66,0.00,,---,0.01,VWS V14.01,2013-03-07 00:01:00,
2013-03-06 19:06:00,36.6,26.3,30.06,NW,313,11.0,20.0,66,0.00,,---,0.01,VWS V14.01,2013-03-07 00:06:00,
2013-03-06 19:10:00,36.4,26.1,30.05,WNW,298,10.0,23.0,66,0.00,,---,0.01,VWS V14.01,2013-03-07 00:10:00,
2013-03-06 19:12:00,36.6,26.3,30.06,West,279,9.0,18.0,66,0.00,,---,0.01,VWS V14.01,2013-03-07 00:12:00,
2013-03-06 19:17:00,36.5,26.2,30.07,WNW,302,10.0,18.0,66,0.00,,---,0.01,VWS V14.01,2013-03-07 00:17:00,
2013-03-06 19:20:00,36.4,26.1,30.05,NW,325,14.0,25.0,66,0.00,,---,0.01,VWS V14.01,2013-03-07 00:20:00,
2013-03-06 19:22:00,36.4,26.1,30.06,WNW,284,9.0,19.0,66,0.00,,---,0.01,VWS V14.01,2013-03-07 00:22:00,
2013-03-06 19:27:00,36.6,26.0,30.06,NNW,333,10.0,21.0,65,0.00,,---,0.01,VWS V14.01,2013-03-07 00:27:00,
2013-03-06 19:30:00,36.3,26.4,30.05,NW,317,16.0,29.0,67,0.00,,---,0.01,VWS V14.01,2013-03-07 00:30:00,
2013-03-06 19:32:00,36.5,26.2,30.07,NNW,342,10.0,14.0,66,0.00,,---,0.01,VWS V14.01,2013-03-07 00:32:00,
2013-03-06 19:37:00,36.5,26.2,30.07,NW,311,13.0,24.0,66,0.00,,---,0.01,VWS V14.01,2013-03-07 00:37:00,
2013-03-06 19:40:00,36.2,26.3,30.05,NW,323,9.0,19.0,67,0.00,,---,0.01,VWS V14.01,2013-03-07 00:40:00,
2013-03-06 19:42:00,36.4,26.1,30.06,West,275,10.0,17.0,66,0.00,,---,0.01,VWS V14.01,2013-03-07 00:42:00,
2013-03-06 19:47:00,36.4,26.5,30.06,WNW,299,6.0,19.0,67,0.00,,---,0.01,VWS V14.01,2013-03-07 00:47:00,
2013-03-06 19:50:00,36.0,26.5,30.05,WNW,290,14.0,18.0,68,0.00,,---,0.01,VWS V14.01,2013-03-07 00:50:00,
2013-03-06 19:52:00,36.4,26.1,30.06,North,355,15.0,20.0,66,0.00,,---,0.01,VWS V14.01,2013-03-07 00:52:00,
2013-03-06 19:57:00,36.4,26.1,30.06,NW,325,11.0,20.0,66,0.00,,---,0.01,VWS V14.01,2013-03-07 00:57:00,
2013-03-06 20:00:00,36.0,26.5,30.06,NW,305,17.0,20.0,68,0.00,,---,0.01,VWS V14.01,2013-03-07 01:00:00,
2013-03-06 20:02:00,36.4,26.1,30.06,West,271,15.0,23.0,66,0.00,,---,0.01,VWS V14.01,2013-03-07 01:02:00,
2013-03-06 20:08:00,36.4,26.1,30.05,North,355,12.0,23.0,66,0.00,,---,0.01,VWS V14.01,2013-03-07 01:08:00,
2013-03-06 20:10:00,36.1,26.6,30.06,WNW,298,14.0,22.0,68,0.00,,---,0.01,VWS V14.01,2013-03-07 01:10:00,
2013-03-06 20:13:00,36.3,26.0,30.05,West,275,20.0,20.0,66,0.00,,---,0.01,VWS V14.01,2013-03-07 01:13:00,
2013-03-06 20:18:00,36.3,26.4,30.05,NW,308,16.0,25.0,67,0.00,,---,0.01,VWS V14.01,2013-03-07 01:18:00,
2013-03-06 20:20:00,35.9,26.4,30.08,NW,315,10.0,20.0,68,0.00,,---,0.01,VWS V14.01,2013-03-07 01:20:00,
2013-03-06 20:23:00,36.3,26.0,30.05,NW,323,13.0,29.0,66,0.00,,---,0.01,VWS V14.01,2013-03-07 01:23:00,
2013-03-06 20:28:00,36.4,26.5,30.05,NW,317,8.0,29.0,67,0.00,,---,0.01,VWS V14.01,2013-03-07 01:28:00,
2013-03-06 20:30:00,36.0,26.5,30.09,NE,35,3.0,21.0,68,0.00,,---,0.01,VWS V14.01,2013-03-07 01:30:00,
2013-03-06 20:33:00,36.3,26.4,30.05,WNW,298,18.0,19.0,67,0.00,,---,0.01,VWS V14.01,2013-03-07 01:33:00,
2013-03-06 20:38:00,36.2,26.3,30.05,NNW,348,9.0,19.0,67,0.00,,---,0.01,VWS V14.01,2013-03-07 01:38:00,
2013-03-06 20:40:00,36.0,26.8,30.09,NW,310,3.0,16.0,69,0.00,,---,0.01,VWS V14.01,2013-03-07 01:40:00,
2013-03-06 20:43:00,36.0,26.5,30.05,NW,323,12.0,17.0,68,0.00,,---,0.01,VWS V14.01,2013-03-07 01:43:00,
2013-03-06 20:48:00,36.0,26.5,30.05,NNW,332,11.0,18.0,68,0.00,,---,0.01,VWS V14.01,2013-03-07 01:48:00,
2013-03-06 20:50:00,36.1,26.6,30.10,WNW,298,13.0,19.0,68,0.00,,---,0.01,VWS V14.01,2013-03-07 01:50:00,
2013-03-06 20:53:00,36.0,26.5,30.05,NW,310,15.0,20.0,68,0.00,,---,0.01,VWS V14.01,2013-03-07 01:53:00,
2013-03-06 20:58:00,36.0,26.5,30.06,North,5,1.0,20.0,68,0.00,,---,0.01,VWS V14.01,2013-03-07 01:58:00,
2013-03-06 21:00:00,36.0,26.5,30.10,NW,323,3.0,15.0,68,0.00,,---,0.01,VWS V14.01,2013-03-07 02:00:00,
2013-03-06 21:03:00,36.0,26.5,30.06,NW,316,10.0,19.0,68,0.00,,---,0.01,VWS V14.01,2013-03-07 02:03:00,
2013-03-06 21:08:00,36.1,26.6,30.06,NNW,333,16.0,22.0,68,0.00,,---,0.01,VWS V14.01,2013-03-07 02:08:00,
2013-03-06 21:10:00,36.0,26.5,30.11,NW,311,10.0,18.0,68,0.00,,---,0.01,VWS V14.01,2013-03-07 02:10:00,
2013-03-06 21:13:00,36.0,26.5,30.07,WNW,294,13.0,20.0,68,0.00,,---,0.01,VWS V14.01,2013-03-07 02:13:00,
2013-03-06 21:19:00,35.9,26.4,30.08,NNW,334,9.0,20.0,68,0.00,,---,0.01,VWS V14.01,2013-03-07 02:19:00,
2013-03-06 21:20:00,35.9,26.7,30.10,NW,304,4.0,14.0,69,0.00,,---,0.01,VWS V14.01,2013-03-07 02:20:00,
2013-03-06 21:24:00,36.0,26.5,30.08,NNW,343,13.0,21.0,68,0.00,,---,0.01,VWS V14.01,2013-03-07 02:24:00,
2013-03-06 21:29:00,36.0,26.5,30.09,NNW,332,11.0,21.0,68,0.00,,---,0.01,VWS V14.01,2013-03-07 02:29:00,
2013-03-06 21:30:00,35.9,26.4,30.11,West,271,3.0,17.0,68,0.00,,---,0.01,VWS V14.01,2013-03-07 02:30:00,
2013-03-06 21:34:00,36.1,26.9,30.09,NNW,334,5.0,16.0,69,0.00,,---,0.01,VWS V14.01,2013-03-07 02:34:00,
2013-03-06 21:39:00,36.0,26.8,30.09,NW,321,2.0,16.0,69,0.00,,---,0.01,VWS V14.01,2013-03-07 02:39:00,
2013-03-06 21:40:00,35.9,26.7,30.12,WNW,291,3.0,18.0,69,0.00,,---,0.01,VWS V14.01,2013-03-07 02:40:00,
2013-03-06 21:44:00,36.0,26.8,30.09,WNW,291,8.0,13.0,69,0.00,,---,0.01,VWS V14.01,2013-03-07 02:44:00,
2013-03-06 21:49:00,36.1,26.6,30.10,WNW,302,17.0,19.0,68,0.00,,---,0.01,VWS V14.01,2013-03-07 02:49:00,
2013-03-06 21:50:00,35.9,26.7,30.12,NNW,344,8.0,19.0,69,0.00,,---,0.01,VWS V14.01,2013-03-07 02:50:00,
2013-03-06 21:54:00,36.0,26.8,30.09,WNW,299,8.0,15.0,69,0.00,,---,0.01,VWS V14.01,2013-03-07 02:54:00,
2013-03-06 21:59:00,36.0,26.5,30.10,NW,323,3.0,15.0,68,0.00,,---,0.01,VWS V14.01,2013-03-07 02:59:00,
2013-03-06 22:00:00,35.9,26.7,30.12,WNW,298,10.0,16.0,69,0.00,,---,0.01,VWS V14.01,2013-03-07 03:00:00,
2013-03-06 22:05:00,36.0,26.5,30.10,WNW,290,9.0,18.0,68,0.00,,---,0.01,VWS V14.01,2013-03-07 03:05:00,
2013-03-06 22:10:00,36.0,26.5,30.10,North,350,11.0,14.0,68,0.00,,---,0.01,VWS V14.01,2013-03-07 03:10:00,
2013-03-06 22:15:00,36.0,26.5,30.10,NW,325,7.0,14.0,68,0.00,,---,0.01,VWS V14.01,2013-03-07 03:15:00,
2013-03-06 22:20:00,35.9,26.7,30.10,North,5,3.0,5.0,69,0.00,,---,0.01,VWS V14.01,2013-03-07 03:20:00,
2013-03-06 22:25:00,35.9,26.4,30.11,NW,304,11.0,17.0,68,0.00,,---,0.01,VWS V14.01,2013-03-07 03:25:00,
2013-03-06 22:30:00,35.9,26.4,30.11,NNW,338,3.0,6.0,68,0.00,,---,0.01,VWS V14.01,2013-03-07 03:30:00,
2013-03-06 22:35:00,35.9,26.4,30.12,WNW,296,13.0,18.0,68,0.00,,---,0.01,VWS V14.01,2013-03-07 03:35:00,
2013-03-06 22:40:00,35.9,26.7,30.12,NW,311,8.0,13.0,69,0.00,,---,0.01,VWS V14.01,2013-03-07 03:40:00,
2013-03-06 22:45:00,35.9,26.7,30.12,NW,317,5.0,19.0,69,0.00,,---,0.01,VWS V14.01,2013-03-07 03:45:00,
2013-03-06 22:50:00,35.9,26.7,30.12,NNW,342,8.0,11.0,69,0.00,,---,0.01,VWS V14.01,2013-03-07 03:50:00,
2013-03-06 22:55:00,35.9,26.7,30.13,NW,311,9.0,16.0,69,0.00,,---,0.01,VWS V14.01,2013-03-07 03:55:00,
2013-03-06 23:00:00,35.7,26.9,30.12,NNW,328,10.0,18.0,70,0.00,,---,0.01,VWS V14.01,2013-03-07 04:00:00,
2013-03-06 23:01:00,35.9,26.7,30.12,NNW,333,6.0,12.0,69,0.00,,---,0.01,VWS V14.01,2013-03-07 04:01:00,
2013-03-06 23:06:00,35.9,26.7,30.12,NNW,348,11.0,20.0,69,0.00,,---,0.01,VWS V14.01,2013-03-07 04:06:00,
2013-03-06 23:10:00,35.6,26.8,30.12,NW,325,9.0,17.0,70,0.00,,---,0.00,VWS V14.01,2013-03-07 04:10:00,
2013-03-06 23:11:00,35.8,26.6,30.12,WNW,303,3.0,11.0,69,0.00,,---,0.01,VWS V14.01,2013-03-07 04:11:00,
2013-03-06 23:16:00,35.8,27.0,30.12,NW,326,6.0,18.0,70,0.00,,---,0.01,VWS V14.01,2013-03-07 04:16:00,
2013-03-06 23:20:00,35.6,26.8,30.12,NW,306,9.0,14.0,70,0.00,,---,0.00,VWS V14.01,2013-03-07 04:20:00,
2013-03-06 23:21:00,35.8,27.0,30.12,NW,322,7.0,12.0,70,0.00,,---,0.01,VWS V14.01,2013-03-07 04:21:00,
2013-03-06 23:26:00,35.8,27.0,30.12,North,5,15.0,17.0,70,0.00,,---,0.01,VWS V14.01,2013-03-07 04:26:00,
2013-03-06 23:30:00,35.6,27.1,30.13,NW,311,6.0,15.0,71,0.00,,---,0.00,VWS V14.01,2013-03-07 04:30:00,
2013-03-06 23:31:00,35.8,27.0,30.12,NNW,347,9.0,15.0,70,0.00,,---,0.01,VWS V14.01,2013-03-07 04:31:00,
2013-03-06 23:36:00,35.7,26.9,30.11,WNW,292,7.0,15.0,70,0.00,,---,0.01,VWS V14.01,2013-03-07 04:36:00,
2013-03-06 23:40:00,35.6,26.8,30.12,NW,304,11.0,14.0,70,0.00,,---,0.00,VWS V14.01,2013-03-07 04:40:00,
2013-03-06 23:41:00,35.7,26.9,30.11,North,5,9.0,16.0,70,0.00,,---,0.01,VWS V14.01,2013-03-07 04:41:00,
2013-03-06 23:47:00,35.7,26.9,30.11,NNW,332,6.0,17.0,70,0.00,,---,0.01,VWS V14.01,2013-03-07 04:47:00,
2013-03-06 23:50:00,35.6,26.8,30.13,North,355,7.0,15.0,70,0.00,,---,0.00,VWS V14.01,2013-03-07 04:50:00,
2013-03-06 23:52:00,35.7,26.9,30.12,North,360,12.0,18.0,70,0.00,,---,0.01,VWS V14.01,2013-03-07 04:52:00,
2013-03-06 23:57:00,35.7,26.9,30.12,NW,321,13.0,18.0,70,0.00,,---,0.01,VWS V14.01,2013-03-07 04:57:00,